Showing default

GLOBALSTAR M069, 31573

Orbit data source: Space-Track

GLOBALSTAR M069, 31573 is a payload satellite owned by Globalstar (US) in LEO that was launched on Tue, 29 May 2007 UTC via a SOYUZ-FG launch vehicle from the Tyuratam Missile And Space Complex (TTMTR). Payload-class satellites include a variety of spacecraft equipped with specific instruments for various scientific and technological missions. These include communications satellites like Starlink; space stations such as the ISS; scientific satellites like the Hubble; Earth observation satellites from companies like Planet Labs, Umbra, and HawkEye 360; GPS; miniature CubeSats for education and research; and military/defense satellites.

Loading next visibility...
Identifier
31573, 2007-020C
Orbit
LEO
Country
Flag of UnknownUnknown / GLOB
Related business
Manufacturer
SS/Loral
Mission
Operational Commercial Communications
Bus & Motor
LS-400, LS-400 AOCS
Mass
450 kg wet, 380 kg dry
Launch date (UTC)
2007-05-29 (18 years ago)
Launch vehicle
SOYUZ-FG
Launch site
Tyuratam Missile And Space Complex (TTMTR)
Object type
Payload
Rocket body
Debris
Shape & HBR
Box + 2 Pan, 6.0 m
Radar Cross Section
5.587 m², Large (>1 m²)

Expand to show TLE details & history
Last TLE update: 11 hours ago

TLE from 11 hours ago
0 GLOBALSTAR M069
1 31573U 07020C   25261.13398258 -.00000098  00000-0 -51918-4 0  9990
2 31573  52.0042 302.1407 0001525 311.4574  80.6397 12.23461725845507
Epoch: 2025-09-18T03:12Z
TLE epoch observation values (Epoch: 2025-09-18T03:12:56.094Z)
Latitude
24.82883°
Longitude
-82.31273°
Altitude
1,578.11 km
Speed
7.082 km/s
True Right ascension
21h 32m 53s
True Declination
24° 42' 41"
Sunlit
Object was in full shadow at epoch
Visualization orbit readout
Latitude
Unknown
Longitude
Unknown
Altitude
Unknown
Speed
Unknown
Apparent Right ascension
Unknown
Apparent Declination
Unknown
Sunlit
N/A
Visualization observer readout
Local Sidereal Time
07:29:11
Azimuth
Unknown
Elevation
Unknown
Doppler factor
Unknown
Orbital elements
Apogee altitude
1,579.096 km
Perigee altitude
1,576.67 km
Semi-major axis
7,956.02 km
Eccentricity
0.00015
Inclination
52.0042°
RAAN
302.1407°
Arg. of periapsis
311.4574°
True anomaly
80.65694°
Mean anomaly
80.6397°
Eccentric anomaly
80.64832°
Mean motion
3.05844 °/min
Orbital period
117.71 mins
BSTAR
-0.000051918
Loading maneuver chart data...
Computing Atmospheric mass density...
Loading historical data...
Loading historical data...
Loading historical data...
Loading historical data...
Loading historical data...
Loading historical data...
Loading historical data...

Documentation

Showing up to 5 results
|